Location: Hokitika
(42.7170°S, 170.9670°E)
Time: 13:55:25
(UTC+12:00)

ISS - Visible Passes

Search period start: 17 May 2021 00:00
Search period end: 27 May 2021 00:00
Orbit: 417 x 422 km, 51.6° (Epoch: 16 May)

Date Brightness Start Highest point End Pass type
(mag) Time Alt. Az. Time Alt. Az. Time Alt. Az.
20 May -1.8 07:14:55 10° NNW 07:18:03 34° NE 07:21:13 10° ESE visible
21 May -1.0 06:28:04 10° N 06:30:43 21° NE 06:33:23 10° E visible
22 May -0.6 05:41:50 10° NNE 05:43:27 13° NE 05:45:03 10° ENE visible
22 May -3.7 07:16:22 10° WNW 07:19:48 85° SSW 07:23:16 10° SE visible
23 May -3.1 06:28:59 10° NW 06:32:21 58° NE 06:35:46 10° ESE visible
24 May -2.3 05:44:15 31° NNE 05:44:58 34° NE 05:48:08 10° ESE visible
25 May -0.5 04:59:28 14° E 04:59:28 14° E 05:00:18 10° E visible
25 May -3.6 06:32:28 25° W 06:34:12 54° SSW 06:37:36 10° SE visible
26 May -3.0 05:47:27 51° SE 05:47:27 51° SE 05:50:09 10° SE visible
26 May -2.3 07:21:03 10° WSW 07:23:54 23° SSW 07:26:45 10° SE visible
